| time (UTC) | temp F | wind direction | speed MPH | gust MPH | rain 1hr in | rain 24hr in | rain mn in | humidity % | barometer mb |
| 20260506124016 | 64 | 229 | 1.0 | 6.0 | 0.00 | 0.00 | 0.00 | 77 | 1009.9 |
| 20260506123516 | 64 | 188 | 2.0 | 6.0 | 0.00 | 0.00 | 0.00 | 77 | 1009.9 |
| 20260506123038 | 64 | 0 | 0.0 | 4.0 | 0.00 | 0.00 | 0.00 | 77 | 1010.2 |
| 20260506122515 | 64 | 316 | 0.0 | 4.0 | 0.00 | 0.00 | 0.00 | 77 | 1010.1 |
| 20260506122016 | 64 | 88 | 2.0 | 4.0 | 0.00 | 0.00 | 0.00 | 76 | 1010.2 |
| 20260506121534 | 64 | 53 | 1.0 | 4.0 | 0.00 | 0.00 | 0.00 | 76 | 1010.3 |
| 20260506121016 | 64 | 257 | 1.0 | 4.0 | 0.00 | 0.00 | 0.00 | 73 | 1010.2 |
| 20260506120520 | 65 | 119 | 1.0 | 5.0 | 0.00 | 0.00 | 0.00 | 73 | 1010.3 |
| 20260506120034 | 65 | 182 | 1.0 | 7.0 | 0.00 | 0.00 | 0.00 | 72 | 1010.4 |
| 20260506115517 | 65 | 17 | 2.0 | 7.0 | 0.00 | 0.00 | 0.00 | 74 | 1010.3 |
| 20260506115018 | 65 | 167 | 2.0 | 6.0 | 0.00 | 0.00 | 0.00 | 74 | 1010.1 |
| 20260506114538 | 65 | 217 | 2.0 | 6.0 | 0.00 | 0.00 | 0.00 | 74 | 1010.2 |
| 20260506114019 | 65 | 138 | 1.0 | 5.0 | 0.00 | 0.00 | 0.00 | 74 | 1010.0 |
| 20260506113515 | 65 | 55 | 1.0 | 9.0 | 0.00 | 0.00 | 0.00 | 74 | 1009.8 |
| 20260506113042 | 65 | 220 | 2.0 | 9.0 | 0.00 | 0.00 | 0.00 | 73 | 1009.9 |
| 20260506112518 | 65 | 25 | 1.0 | 12.0 | 0.00 | 0.00 | 0.00 | 74 | 1009.7 |
| 20260506112017 | 65 | 226 | 2.0 | 12.0 | 0.00 | 0.00 | 0.00 | 70 | 1009.7 |
| 20260506111533 | 65 | 344 | 3.0 | 9.0 | 0.00 | 0.00 | 0.00 | 74 | 1009.8 |
| 20260506111016 | 65 | 61 | 2.0 | 9.0 | 0.00 | 0.00 | 0.00 | 75 | 1009.7 |
| 20260506110518 | 64 | 144 | 1.0 | 8.0 | 0.00 | 0.00 | 0.00 | 74 | 1009.6 |
| 20260506110041 | 64 | 308 | 2.0 | 8.0 | 0.00 | 0.00 | 0.00 | 75 | 1009.5 |
| 20260506105517 | 64 | 161 | 1.0 | 8.0 | 0.00 | 0.00 | 0.00 | 75 | 1009.5 |
| 20260506105020 | 64 | 251 | 1.0 | 8.0 | 0.00 | 0.00 | 0.00 | 75 | 1009.4 |
| 20260506104533 | 64 | 313 | 2.0 | 8.0 | 0.00 | 0.00 | 0.00 | 75 | 1009.6 |
| 20260506104020 | 64 | 61 | 1.0 | 4.0 | 0.00 | 0.00 | 0.00 | 75 | 1009.4 |
| 20260506103516 | 64 | 285 | 1.0 | 7.0 | 0.00 | 0.00 | 0.00 | 75 | 1009.4 |
| 20260506103032 | 64 | 73 | 1.0 | 7.0 | 0.00 | 0.00 | 0.00 | 75 | 1009.4 |
| 20260506102517 | 64 | 218 | 1.0 | 5.0 | 0.00 | 0.00 | 0.00 | 75 | 1009.5 |
| 20260506102016 | 64 | 64 | 0.0 | 5.0 | 0.00 | 0.00 | 0.00 | 75 | 1009.5 |
| 20260506101534 | 64 | 180 | 0.0 | 3.0 | 0.00 | 0.00 | 0.00 | 75 | 1009.6 |
| 20260506101015 | 64 | 231 | 1.0 | 3.0 | 0.00 | 0.00 | 0.00 | 75 | 1009.5 |
| 20260506100516 | 64 | 123 | 0.0 | 3.0 | 0.00 | 0.00 | 0.00 | 75 | 1009.4 |
| 20260506100036 | 64 | 340 | 0.0 | 4.0 | 0.00 | 0.00 | 0.00 | 75 | 1009.4 |
| 20260506095516 | 64 | 225 | 1.0 | 4.0 | 0.00 | 0.00 | 0.00 | 74 | 1009.5 |
| 20260506095019 | 64 | 46 | 1.0 | 4.0 | 0.00 | 0.00 | 0.00 | 74 | 1009.4 |
| 20260506094534 | 64 | 144 | 1.0 | 6.0 | 0.00 | 0.00 | 0.00 | 74 | 1009.5 |
| 20260506094019 | 64 | 277 | 1.0 | 6.0 | 0.00 | 0.00 | 0.00 | 74 | 1009.6 |
| 20260506093520 | 64 | 332 | 0.0 | 4.0 | 0.00 | 0.00 | 0.00 | 74 | 1009.5 |
| 20260506093039 | 64 | 65 | 1.0 | 5.0 | 0.00 | 0.00 | 0.00 | 73 | 1009.5 |
| 20260506092519 | 65 | 235 | 1.0 | 7.0 | 0.00 | 0.00 | 0.00 | 73 | 1009.6 |
| 20260506092019 | 65 | 256 | 1.0 | 7.0 | 0.00 | 0.00 | 0.00 | 73 | 1009.6 |
| 20260506091540 | 65 | 237 | 1.0 | 7.0 | 0.00 | 0.00 | 0.00 | 73 | 1009.6 |
| 20260506091024 | 65 | 346 | 1.0 | 6.0 | 0.00 | 0.00 | 0.00 | 72 | 1009.6 |
| 20260506090520 | 65 | 173 | 1.0 | 7.0 | 0.00 | 0.00 | 0.00 | 72 | 1009.6 |
| 20260506090041 | 65 | 169 | 1.0 | 7.0 | 0.00 | 0.00 | 0.00 | 72 | 1009.7 |
| 20260506085520 | 65 | 111 | 1.0 | 5.0 | 0.00 | 0.00 | 0.00 | 71 | 1009.7 |
| 20260506085020 | 66 | 194 | 1.0 | 7.0 | 0.00 | 0.00 | 0.00 | 71 | 1009.8 |
| 20260506084540 | 66 | 142 | 1.0 | 7.0 | 0.00 | 0.00 | 0.00 | 71 | 1009.8 |
| 20260506084019 | 66 | 198 | 2.0 | 7.0 | 0.00 | 0.00 | 0.00 | 71 | 1009.7 |
| 20260506083519 | 66 | 112 | 1.0 | 7.0 | 0.00 | 0.00 | 0.00 | 70 | 1009.7 |
| 20260506083035 | 66 | 248 | 1.0 | 7.0 | 0.00 | 0.00 | 0.00 | 69 | 1009.7 |
| 20260506082519 | 66 | 229 | 2.0 | 7.0 | 0.00 | 0.00 | 0.00 | 69 | 1009.8 |
| 20260506082019 | 66 | 302 | 1.0 | 5.0 | 0.00 | 0.00 | 0.00 | 69 | 1009.8 |
| 20260506081533 | 66 | 173 | 1.0 | 5.0 | 0.00 | 0.00 | 0.00 | 69 | 1009.7 |
| 20260506081019 | 67 | 280 | 1.0 | 4.0 | 0.00 | 0.00 | 0.00 | 69 | 1009.6 |
| 20260506080520 | 67 | 190 | 1.0 | 4.0 | 0.00 | 0.00 | 0.00 | 68 | 1009.6 |
| 20260506073522 | 67 | 288 | 1.0 | 8.0 | 0.00 | 0.00 | 0.00 | 66 | 1009.6 |
| 20260506073039 | 68 | 57 | 1.0 | 8.0 | 0.00 | 0.00 | 0.00 | 66 | 1009.6 |
| 20260506072518 | 68 | 80 | 0.0 | 3.0 | 0.00 | 0.00 | 0.00 | 66 | 1009.8 |
| 20260506072019 | 68 | 352 | 1.0 | 6.0 | 0.00 | 0.00 | 0.00 | 65 | 1009.8 |
| 20260506071542 | 68 | 205 | 1.0 | 7.0 | 0.00 | 0.00 | 0.00 | 64 | 1009.8 |
| 20260506071019 | 68 | 178 | 2.0 | 7.0 | 0.00 | 0.00 | 0.00 | 64 | 1009.8 |
| 20260506070519 | 69 | 175 | 1.0 | 8.0 | 0.00 | 0.00 | 0.00 | 63 | 1009.9 |
| 20260506062515 | 69 | 263 | 1.0 | 7.0 | 0.00 | 0.00 | 0.00 | 61 | 1010.0 |
| 20260506062022 | 70 | 178 | 1.0 | 9.0 | 0.00 | 0.00 | 0.00 | 61 | 1010.0 |
| 20260506061545 | 70 | 304 | 2.0 | 9.0 | 0.00 | 0.00 | 0.00 | 61 | 1010.0 |
| 20260506061019 | 70 | 62 | 1.0 | 9.0 | 0.00 | 0.00 | 0.00 | 60 | 1009.9 |
| 20260506060516 | 70 | 51 | 1.0 | 9.0 | 0.00 | 0.00 | 0.00 | 60 | 1009.9 |
| 20260506051016 | 71 | 230 | 1.0 | 10.0 | 0.00 | 0.00 | 0.00 | 55 | 1010.5 |
| 20260506050516 | 71 | 71 | 1.0 | 7.0 | 0.00 | 0.00 | 0.00 | 55 | 1010.5 |
| 20260506045015 | 72 | 98 | 1.0 | 8.0 | 0.00 | 0.00 | 0.00 | 54 | 1010.5 |
| 20260506044544 | 72 | 90 | 1.0 | 8.0 | 0.00 | 0.00 | 0.00 | 54 | 1010.6 |
| 20260506044016 | 72 | 141 | 1.0 | 9.0 | 0.00 | 0.00 | 0.00 | 53 | 1010.7 |
| 20260506043519 | 72 | 40 | 2.0 | 10.0 | 0.00 | 0.00 | 0.00 | 53 | 1010.6 |
| 20260506043032 | 72 | 161 | 3.0 | 10.0 | 0.00 | 0.00 | 0.00 | 53 | 1010.7 |
| 20260506042517 | 72 | 342 | 3.0 | 8.0 | 0.00 | 0.00 | 0.00 | 53 | 1010.5 |
| 20260506042020 | 72 | 319 | 2.0 | 7.0 | 0.00 | 0.00 | 0.00 | 53 | 1010.4 |
| 20260506041536 | 72 | 227 | 2.0 | 5.0 | 0.00 | 0.00 | 0.00 | 53 | 1010.4 |
| 20260506041021 | 72 | 283 | 1.0 | 6.0 | 0.00 | 0.00 | 0.00 | 53 | 1010.4 |
| 20260506040516 | 72 | 5 | 1.0 | 13.0 | 0.00 | 0.00 | 0.00 | 52 | 1010.6 |
| 20260506040035 | 72 | 179 | 3.0 | 13.0 | 0.00 | 0.00 | 0.00 | 52 | 1010.5 |
| 20260506035516 | 72 | 167 | 2.0 | 9.0 | 0.00 | 0.00 | 0.00 | 49 | 1010.5 |
| 20260506035016 | 72 | 39 | 2.0 | 10.0 | 0.00 | 0.00 | 0.00 | 52 | 1010.5 |
| 20260506034530 | 72 | 212 | 2.0 | 10.0 | 0.00 | 0.00 | 0.00 | 51 | 1010.4 |
| 20260506034019 | 72 | 338 | 2.0 | 11.0 | 0.00 | 0.00 | 0.00 | 52 | 1010.5 |
| 20260506033517 | 72 | 232 | 2.0 | 11.0 | 0.00 | 0.00 | 0.00 | 52 | 1010.3 |
| 20260506033033 | 72 | 37 | 2.0 | 4.0 | 0.00 | 0.00 | 0.00 | 51 | 1010.5 |
| 20260506032516 | 72 | 273 | 2.0 | 10.0 | 0.00 | 0.00 | 0.00 | 51 | 1010.4 |
| 20260506032019 | 72 | 288 | 1.0 | 10.0 | 0.00 | 0.00 | 0.00 | 50 | 1010.3 |
| 20260506031544 | 72 | 182 | 1.0 | 11.0 | 0.00 | 0.00 | 0.00 | 51 | 1010.3 |
| 20260506031016 | 72 | 221 | 2.0 | 10.0 | 0.00 | 0.00 | 0.00 | 50 | 1010.3 |
| 20260506030516 | 72 | 267 | 1.0 | 12.0 | 0.00 | 0.00 | 0.00 | 50 | 1010.2 |
| 20260506030032 | 72 | 69 | 2.0 | 12.0 | 0.00 | 0.00 | 0.00 | 50 | 1010.2 |
| 20260506025515 | 72 | 14 | 1.0 | 7.0 | 0.00 | 0.00 | 0.00 | 49 | 1010.3 |
| 20260506025019 | 73 | 153 | 2.0 | 7.0 | 0.00 | 0.00 | 0.00 | 49 | 1010.3 |
| 20260506024534 | 73 | 0 | 2.0 | 8.0 | 0.00 | 0.00 | 0.00 | 48 | 1010.3 |
| 20260506024016 | 73 | 141 | 2.0 | 8.0 | 0.00 | 0.00 | 0.00 | 48 | 1010.5 |
| 20260506023516 | 72 | 33 | 1.0 | 8.0 | 0.00 | 0.00 | 0.00 | 48 | 1010.6 |
| 20260506023035 | 72 | 170 | 1.0 | 4.0 | 0.00 | 0.00 | 0.00 | 47 | 1010.6 |
| 20260506022516 | 72 | 63 | 1.0 | 4.0 | 0.00 | 0.00 | 0.00 | 47 | 1010.6 |
| 20260506022016 | 72 | 94 | 1.0 | 4.0 | 0.00 | 0.00 | 0.00 | 47 | 1010.6 |
| 20260506021533 | 72 | 182 | 0.0 | 4.0 | 0.00 | 0.00 | 0.00 | 46 | 1010.5 |
| 20260506021016 | 72 | 136 | 1.0 | 9.0 | 0.00 | 0.00 | 0.00 | 45 | 1010.5 |
| 20260506020518 | 73 | 46 | 1.0 | 9.0 | 0.00 | 0.00 | 0.00 | 44 | 1010.6 |
| 20260506020034 | 73 | 163 | 0.0 | 2.0 | 0.00 | 0.00 | 0.00 | 44 | 1010.5 |
| 20260506015518 | 73 | 0 | 0.0 | 4.0 | 0.00 | 0.00 | 0.00 | 43 | 1010.5 |
| 20260506015017 | 73 | 148 | 1.0 | 4.0 | 0.00 | 0.00 | 0.00 | 43 | 1010.4 |
| 20260506014533 | 74 | 277 | 1.0 | 5.0 | 0.00 | 0.00 | 0.00 | 43 | 1010.3 |
| 20260506014016 | 74 | 221 | 1.0 | 5.0 | 0.00 | 0.00 | 0.00 | 39 | 1010.2 |
| 20260506013517 | 74 | 166 | 2.0 | 5.0 | 0.00 | 0.00 | 0.00 | 39 | 1010.2 |
| 20260506013033 | 74 | 0 | 1.0 | 6.0 | 0.00 | 0.00 | 0.00 | 42 | 1010.2 |
| 20260506012516 | 74 | 145 | 2.0 | 6.0 | 0.00 | 0.00 | 0.00 | 41 | 1010.1 |
| 20260506012016 | 74 | 252 | 1.0 | 7.0 | 0.00 | 0.00 | 0.00 | 42 | 1010.1 |
| 20260506011543 | 74 | 173 | 1.0 | 7.0 | 0.00 | 0.00 | 0.00 | 41 | 1010.1 |
| 20260506011018 | 74 | 205 | 2.0 | 7.0 | 0.00 | 0.00 | 0.00 | 41 | 1009.9 |
| 20260506010520 | 74 | 81 | 0.0 | 2.0 | 0.00 | 0.00 | 0.00 | 38 | 1009.7 |
| 20260506010050 | 75 | 24 | 0.0 | 2.0 | 0.00 | 0.00 | 0.00 | 40 | 1009.8 |
| 20260506005519 | 75 | 0 | 0.0 | 7.0 | 0.00 | 0.00 | 0.00 | 40 | 1009.7 |
| 20260506005015 | 75 | 246 | 1.0 | 7.0 | 0.00 | 0.00 | 0.00 | 37 | 1009.7 |
| 20260506004532 | 76 | 348 | 1.0 | 6.0 | 0.00 | 0.00 | 0.00 | 39 | 1009.5 |
| 20260506004016 | 76 | 320 | 1.0 | 6.0 | 0.00 | 0.00 | 0.00 | 39 | 1009.4 |
| 20260506003516 | 76 | 189 | 1.0 | 7.0 | 0.00 | 0.00 | 0.00 | 37 | 1009.3 |
| 20260506003038 | 76 | 279 | 2.0 | 7.0 | 0.00 | 0.00 | 0.00 | 39 | 1009.2 |
| 20260506002546 | 76 | 163 | 1.0 | 6.0 | 0.00 | 0.00 | 0.00 | 39 | 1009.3 |
| 20260506002016 | 76 | 340 | 1.0 | 9.0 | 0.00 | 0.00 | 0.00 | 38 | 1009.3 |
| 20260506001540 | 77 | 250 | 2.0 | 9.0 | 0.00 | 0.00 | 0.00 | 35 | 1009.2 |
| 20260506001016 | 77 | 360 | 1.0 | 9.0 | 0.00 | 0.00 | 0.00 | 37 | 1009.2 |
| 20260506000516 | 77 | 291 | 1.0 | 9.0 | 0.00 | 0.00 | 0.00 | 37 | 1009.2 |
| 20260506000034 | 77 | 66 | 0.0 | 6.0 | 0.00 | 0.00 | 0.00 | 37 | 1009.2 |
| 20260505235517 | 78 | 190 | 2.0 | 6.0 | 0.00 | 0.00 | 0.00 | 36 | 1009.3 |
| 20260505235016 | 78 | 319 | 2.0 | 6.0 | 0.00 | 0.00 | 0.00 | 35 | 1009.1 |
| 20260505234534 | 78 | 49 | 1.0 | 5.0 | 0.00 | 0.00 | 0.00 | 35 | 1009.0 |
| 20260505234016 | 78 | 344 | 2.0 | 9.0 | 0.00 | 0.00 | 0.00 | 31 | 1009.1 |
| 20260505233516 | 79 | 226 | 1.0 | 10.0 | 0.00 | 0.00 | 0.00 | 35 | 1009.0 |
| 20260505233030 | 79 | 232 | 3.0 | 10.0 | 0.00 | 0.00 | 0.00 | 31 | 1009.1 |
| 20260505232519 | 79 | 271 | 2.0 | 10.0 | 0.00 | 0.00 | 0.00 | 34 | 1009.0 |
| 20260505232018 | 79 | 203 | 1.0 | 5.0 | 0.00 | 0.00 | 0.00 | 34 | 1009.1 |
| 20260505231530 | 79 | 46 | 1.0 | 3.0 | 0.00 | 0.00 | 0.00 | 34 | 1009.0 |
| 20260505231016 | 79 | 155 | 1.0 | 8.0 | 0.00 | 0.00 | 0.00 | 34 | 1009.1 |
| 20260505230518 | 79 | 212 | 3.0 | 8.0 | 0.00 | 0.00 | 0.00 | 30 | 1009.0 |
| 20260505230039 | 80 | 67 | 1.0 | 16.0 | 0.00 | 0.00 | 0.00 | 29 | 1009.1 |
| 20260505225519 | 80 | 299 | 2.0 | 16.0 | 0.00 | 0.00 | 0.00 | 32 | 1009.1 |
| 20260505225018 | 80 | 219 | 4.0 | 13.0 | 0.00 | 0.00 | 0.00 | 32 | 1009.1 |
| 20260505224537 | 80 | 200 | 3.0 | 11.0 | 0.00 | 0.00 | 0.00 | 30 | 1009.1 |
| 20260505224018 | 80 | 151 | 3.0 | 10.0 | 0.00 | 0.00 | 0.00 | 32 | 1009.1 |
| 20260505223517 | 81 | 360 | 2.0 | 14.0 | 0.00 | 0.00 | 0.00 | 29 | 1009.1 |
| 20260505223030 | 81 | 155 | 2.0 | 14.0 | 0.00 | 0.00 | 0.00 | 32 | 1009.2 |
| 20260505222517 | 81 | 12 | 4.0 | 13.0 | 0.00 | 0.00 | 0.00 | 32 | 1009.1 |
| 20260505222018 | 81 | 179 | 3.0 | 19.0 | 0.00 | 0.00 | 0.00 | 32 | 1009.1 |
| 20260505221539 | 80 | 348 | 2.0 | 19.0 | 0.00 | 0.00 | 0.00 | 32 | 1009.2 |
| 20260505221017 | 80 | 324 | 4.0 | 18.0 | 0.00 | 0.00 | 0.00 | 33 | 1009.2 |
| 20260505220518 | 81 | 165 | 2.0 | 10.0 | 0.00 | 0.00 | 0.00 | 32 | 1009.1 |
| 20260505220038 | 81 | 207 | 3.0 | 8.0 | 0.00 | 0.00 | 0.00 | 33 | 1009.1 |
| 20260505215517 | 81 | 23 | 3.0 | 8.0 | 0.00 | 0.00 | 0.00 | 34 | 1009.1 |
| 20260505215018 | 81 | 224 | 2.0 | 13.0 | 0.00 | 0.00 | 0.00 | 32 | 1009.2 |
| 20260505214538 | 81 | 194 | 3.0 | 13.0 | 0.00 | 0.00 | 0.00 | 30 | 1009.1 |
| 20260505214018 | 81 | 205 | 1.0 | 10.0 | 0.00 | 0.00 | 0.00 | 32 | 1009.2 |
| 20260505213518 | 81 | 159 | 2.0 | 10.0 | 0.00 | 0.00 | 0.00 | 34 | 1009.1 |
| 20260505213033 | 82 | 237 | 3.0 | 9.0 | 0.00 | 0.00 | 0.00 | 33 | 1009.1 |
| 20260505212518 | 82 | 257 | 2.0 | 8.0 | 0.00 | 0.00 | 0.00 | 31 | 1009.0 |
| 20260505212018 | 82 | 284 | 3.0 | 10.0 | 0.00 | 0.00 | 0.00 | 32 | 1008.9 |
| 20260505211534 | 83 | 168 | 2.0 | 10.0 | 0.00 | 0.00 | 0.00 | 32 | 1008.9 |
| 20260505211018 | 83 | 247 | 3.0 | 9.0 | 0.00 | 0.00 | 0.00 | 30 | 1008.9 |
| 20260505210517 | 83 | 238 | 3.0 | 7.0 | 0.00 | 0.00 | 0.00 | 32 | 1009.0 |
| 20260505210031 | 83 | 240 | 3.0 | 14.0 | 0.00 | 0.00 | 0.00 | 32 | 1008.9 |
| 20260505205520 | 84 | 352 | 4.0 | 14.0 | 0.00 | 0.00 | 0.00 | 32 | 1008.8 |
| 20260505205017 | 84 | 340 | 4.0 | 11.0 | 0.00 | 0.00 | 0.00 | 32 | 1008.8 |
| 20260505204530 | 84 | 298 | 3.0 | 12.0 | 0.00 | 0.00 | 0.00 | 29 | 1008.9 |
| 20260505204018 | 84 | 217 | 6.0 | 12.0 | 0.00 | 0.00 | 0.00 | 28 | 1008.8 |
| 20260505203518 | 84 | 55 | 3.0 | 9.0 | 0.00 | 0.00 | 0.00 | 28 | 1008.8 |
| 20260505203039 | 84 | 284 | 3.0 | 13.0 | 0.00 | 0.00 | 0.00 | 32 | 1008.9 |
| 20260505202521 | 84 | 174 | 6.0 | 13.0 | 0.00 | 0.00 | 0.00 | 31 | 1008.8 |
| 20260505202017 | 84 | 351 | 4.0 | 13.0 | 0.00 | 0.00 | 0.00 | 31 | 1008.9 |
| 20260505201547 | 85 | 5 | 4.0 | 12.0 | 0.00 | 0.00 | 0.00 | 32 | 1008.9 |
| 20260505201018 | 85 | 185 | 2.0 | 14.0 | 0.00 | 0.00 | 0.00 | 29 | 1008.8 |
| 20260505200517 | 84 | 266 | 3.0 | 14.0 | 0.00 | 0.00 | 0.00 | 32 | 1009.0 |
| 20260505200034 | 84 | 80 | 2.0 | 11.0 | 0.00 | 0.00 | 0.00 | 33 | 1009.0 |
| 20260505195517 | 84 | 101 | 2.0 | 21.0 | 0.00 | 0.00 | 0.00 | 33 | 1009.1 |
| 20260505195017 | 84 | 341 | 5.0 | 21.0 | 0.00 | 0.00 | 0.00 | 32 | 1009.2 |
| 20260505194535 | 84 | 221 | 3.0 | 9.0 | 0.00 | 0.00 | 0.00 | 32 | 1009.1 |
| 20260505194018 | 84 | 57 | 3.0 | 14.0 | 0.00 | 0.00 | 0.00 | 33 | 1009.0 |
| 20260505193518 | 84 | 184 | 5.0 | 14.0 | 0.00 | 0.00 | 0.00 | 33 | 1009.2 |
| 20260505193038 | 84 | 157 | 5.0 | 13.0 | 0.00 | 0.00 | 0.00 | 32 | 1009.2 |
| 20260505192520 | 85 | 263 | 4.0 | 12.0 | 0.00 | 0.00 | 0.00 | 30 | 1009.4 |
| 20260505192018 | 85 | 209 | 3.0 | 8.0 | 0.00 | 0.00 | 0.00 | 31 | 1009.2 |
| 20260505191538 | 84 | 106 | 2.0 | 9.0 | 0.00 | 0.00 | 0.00 | 32 | 1009.4 |
| 20260505191018 | 84 | 338 | 3.0 | 12.0 | 0.00 | 0.00 | 0.00 | 33 | 1009.5 |
| 20260505190522 | 84 | 227 | 6.0 | 12.0 | 0.00 | 0.00 | 0.00 | 30 | 1009.6 |
| 20260505190039 | 84 | 329 | 3.0 | 14.0 | 0.00 | 0.00 | 0.00 | 35 | 1009.6 |
| 20260505185519 | 84 | 203 | 6.0 | 14.0 | 0.00 | 0.00 | 0.00 | 33 | 1009.7 |
| 20260505185018 | 84 | 352 | 3.0 | 9.0 | 0.00 | 0.00 | 0.00 | 29 | 1009.7 |
| 20260505184533 | 84 | 150 | 1.0 | 12.0 | 0.00 | 0.00 | 0.00 | 36 | 1009.9 |
| 20260505184018 | 83 | 179 | 3.0 | 12.0 | 0.00 | 0.00 | 0.00 | 31 | 1010.0 |
| 20260505183517 | 84 | 184 | 3.0 | 9.0 | 0.00 | 0.00 | 0.00 | 34 | 1010.1 |
| 20260505183045 | 83 | 290 | 3.0 | 11.0 | 0.00 | 0.00 | 0.00 | 31 | 1010.2 |
| 20260505182517 | 83 | 284 | 4.0 | 11.0 | 0.00 | 0.00 | 0.00 | 32 | 1010.2 |
| 20260505182017 | 83 | 352 | 3.0 | 19.0 | 0.00 | 0.00 | 0.00 | 31 | 1010.4 |
| 20260505181534 | 83 | 17 | 4.0 | 19.0 | 0.00 | 0.00 | 0.00 | 35 | 1010.4 |
| 20260505181018 | 83 | 194 | 5.0 | 18.0 | 0.00 | 0.00 | 0.00 | 32 | 1010.6 |
| 20260505180517 | 83 | 328 | 4.0 | 12.0 | 0.00 | 0.00 | 0.00 | 36 | 1010.5 |
| 20260505180042 | 83 | 352 | 1.0 | 12.0 | 0.00 | 0.00 | 0.00 | 34 | 1010.5 |
| 20260505175518 | 83 | 149 | 2.0 | 12.0 | 0.00 | 0.00 | 0.00 | 32 | 1010.7 |
| 20260505175023 | 83 | 182 | 2.0 | 12.0 | 0.00 | 0.00 | 0.00 | 34 | 1010.8 |
| 20260505174533 | 83 | 177 | 3.0 | 13.0 | 0.00 | 0.00 | 0.00 | 34 | 1010.7 |
| 20260505174019 | 83 | 185 | 4.0 | 12.0 | 0.00 | 0.00 | 0.00 | 34 | 1010.7 |
| 20260505173517 | 83 | 264 | 3.0 | 13.0 | 0.00 | 0.00 | 0.00 | 34 | 1010.7 |
| 20260505173047 | 83 | 62 | 2.0 | 13.0 | 0.00 | 0.00 | 0.00 | 30 | 1010.7 |
| 20260505172517 | 82 | 235 | 2.0 | 10.0 | 0.00 | 0.00 | 0.00 | 33 | 1010.8 |
| 20260505172017 | 82 | 223 | 4.0 | 10.0 | 0.00 | 0.00 | 0.00 | 32 | 1010.9 |
| 20260505171545 | 82 | 331 | 2.0 | 8.0 | 0.00 | 0.00 | 0.00 | 38 | 1010.9 |
| 20260505171019 | 83 | 10 | 1.0 | 8.0 | 0.00 | 0.00 | 0.00 | 40 | 1011.0 |
| 20260505170518 | 82 | 206 | 2.0 | 8.0 | 0.00 | 0.00 | 0.00 | 37 | 1011.0 |
| 20260505170031 | 82 | 194 | 2.0 | 9.0 | 0.00 | 0.00 | 0.00 | 36 | 1011.0 |
| 20260505165521 | 81 | 41 | 3.0 | 9.0 | 0.00 | 0.00 | 0.00 | 38 | 1011.1 |
| 20260505165017 | 81 | 36 | 1.0 | 13.0 | 0.00 | 0.00 | 0.00 | 36 | 1011.1 |
| 20260505164532 | 80 | 150 | 3.0 | 13.0 | 0.00 | 0.00 | 0.00 | 38 | 1011.3 |
| 20260505164018 | 81 | 320 | 3.0 | 11.0 | 0.00 | 0.00 | 0.00 | 36 | 1011.4 |
| 20260505163517 | 81 | 136 | 3.0 | 8.0 | 0.00 | 0.00 | 0.00 | 38 | 1011.5 |
| 20260505163032 | 81 | 12 | 2.0 | 7.0 | 0.00 | 0.00 | 0.00 | 39 | 1011.6 |
| 20260505162518 | 81 | 213 | 2.0 | 13.0 | 0.00 | 0.00 | 0.00 | 36 | 1011.6 |
| 20260505162018 | 80 | 259 | 1.0 | 13.0 | 0.00 | 0.00 | 0.00 | 42 | 1011.8 |
| 20260505161532 | 80 | 19 | 3.0 | 13.0 | 0.00 | 0.00 | 0.00 | 39 | 1011.9 |
| 20260505161018 | 80 | 207 | 2.0 | 10.0 | 0.00 | 0.00 | 0.00 | 40 | 1011.8 |
| 20260505160521 | 80 | 9 | 3.0 | 10.0 | 0.00 | 0.00 | 0.00 | 42 | 1011.7 |
| 20260505153032 | 78 | 18 | 3.0 | 8.0 | 0.00 | 0.00 | 0.00 | 44 | 1012.0 |
| 20260505152517 | 78 | 81 | 2.0 | 7.0 | 0.00 | 0.00 | 0.00 | 44 | 1012.0 |
| 20260505152018 | 77 | 342 | 2.0 | 8.0 | 0.00 | 0.00 | 0.00 | 45 | 1012.0 |
| 20260505151537 | 77 | 102 | 2.0 | 10.0 | 0.00 | 0.00 | 0.00 | 46 | 1012.0 |
| 20260505151018 | 77 | 175 | 3.0 | 10.0 | 0.00 | 0.00 | 0.00 | 45 | 1012.1 |
| 20260505150518 | 76 | 246 | 2.0 | 7.0 | 0.00 | 0.00 | 0.00 | 43 | 1012.0 |
| 20260505140518 | 73 | 232 | 2.0 | 8.0 | 0.00 | 0.00 | 0.00 | 51 | 1012.1 |
| 20260505125017 | 68 | 91 | 2.0 | 8.0 | 0.00 | 0.00 | 0.00 | 56 | 1012.4 |
| 20260505124534 | 67 | 228 | 0.0 | 7.0 | 0.00 | 0.00 | 0.00 | 57 | 1012.4 |